N365AD KSAN-KNZY

Flight info

Callsign N365AD
Flight time 0h 9m
Altitude VFR
Route
Aircraft C172/L-VGD/C

Departure

Time 2026-05-05 20:48
Airport San Diego International Airport (KSAN)

Arrival

Time 2026-05-05 20:57
Airport North Island Naval Air Station-Halsey Field (KNZY)
Time Latitude Longitude Altitude Speed Heading
2026-05-05 20:48 32.73482 -117.19540 372 ft 62 kts 283°
2026-05-05 20:48 32.73609 -117.20072 657 ft 70 kts 288°
2026-05-05 20:48 32.73818 -117.20581 930 ft 77 kts 329°
2026-05-05 20:49 32.74140 -117.20012 1013 ft 117 kts 118°
2026-05-05 20:49 32.73973 -117.19056 1089 ft 127 kts 101°
2026-05-05 20:49 32.73810 -117.17964 988 ft 133 kts 102°
2026-05-05 20:49 32.73619 -117.17028 886 ft 98 kts 120°
2026-05-05 20:50 32.73099 -117.16878 700 ft 71 kts 226°
2026-05-05 20:50 32.73010 -117.17438 352 ft 78 kts 275°
2026-05-05 20:50 32.73146 -117.18102 40 ft 78 kts 286°
2026-05-05 20:50 32.73262 -117.18624 99 ft 64 kts 282°
2026-05-05 20:51 32.73347 -117.19119 460 ft 62 kts 288°
2026-05-05 20:51 32.73485 -117.19607 809 ft 64 kts 285°
2026-05-05 20:51 32.73626 -117.20147 1099 ft 70 kts 284°
2026-05-05 20:51 32.73522 -117.20655 1299 ft 88 kts 208°
2026-05-05 20:52 32.72876 -117.20763 1468 ft 99 kts 191°
2026-05-05 20:52 32.72154 -117.20809 1495 ft 114 kts 187°
2026-05-05 20:52 32.71358 -117.20851 1566 ft 115 kts 188°
2026-05-05 20:52 32.70555 -117.20943 1644 ft 104 kts 198°
2026-05-05 20:53 32.69816 -117.21099 1573 ft 109 kts 194°
2026-05-05 20:53 32.69153 -117.21195 1507 ft 87 kts 195°
2026-05-05 20:53 32.68563 -117.21223 1420 ft 78 kts 190°
2026-05-05 20:53 32.67977 -117.21164 1513 ft 97 kts 181°
2026-05-05 20:54 32.67216 -117.21019 1531 ft 115 kts 175°
2026-05-05 20:54 32.66430 -117.20804 1691 ft 117 kts 171°
2026-05-05 20:54 32.65955 -117.20011 1745 ft 133 kts 107°
2026-05-05 20:54 32.65822 -117.18939 1860 ft 128 kts 92°
2026-05-05 20:55 32.65772 -117.17809 1452 ft 133 kts 92°
2026-05-05 20:55 32.65941 -117.16846 1175 ft 108 kts 48°
2026-05-05 20:55 32.66438 -117.16631 1105 ft 78 kts 345°
2026-05-05 20:55 32.67031 -117.16884 1135 ft 103 kts 321°
2026-05-05 20:56 32.67664 -117.17432 935 ft 113 kts 312°
2026-05-05 20:56 32.68093 -117.18096 699 ft 94 kts 298°
2026-05-05 20:56 32.68404 -117.18729 484 ft 84 kts 304°
2026-05-05 20:56 32.68712 -117.19283 316 ft 79 kts 301°
2026-05-05 20:57 32.68998 -117.19809 156 ft 72 kts 300°
2026-05-05 20:57 32.69247 -117.20270 32 ft 60 kts 303°
2026-05-05 20:57 32.69433 -117.20618 27 ft 42 kts 305°
2026-05-05 20:57 32.69542 -117.20833 28 ft 24 kts 300°
2026-05-05 20:58 32.69667 -117.21062 27 ft 37 kts 304°
2026-05-05 20:58 32.69802 -117.21197 26 ft 19 kts 22°
2026-05-05 20:58 32.69940 -117.21154 25 ft 21 kts 351°
2026-05-05 20:58 32.69959 -117.21159 25 ft 0 kts 342°